User: anonymous   Login
Location: Melbourne
(37.8170°S, 144.9670°E)
Time: 21:20:19
(UTC+11:00)
Language:

CZ-3 R/B - Orbit

View from above orbital plane
View from above orbital plane
View from above satellite
View from above satellite

Ground track
Ground track

The orbit data is extracted from the following two-line orbital elements,

1 29517U 06048B   15063.83311574  .00162967  57494-6  20180-2 0  9998
2 29517 028.5014 300.8177 5098075 057.2382 010.3090 05.60340089113769
Epoch (UTC): 04 March 2015 19:59:41
Eccentricity: 0.5098075
inclination: 28.5014°
perigee height: 185 km
apogee height: 13837 km
right ascension of ascending node: 300.8177°
argument of perigee: 57.2382°
revolutions per day: 5.60340089
mean anomaly at epoch: 10.3090°
orbit number at epoch: 11376

The dashed part of the orbit path shows where the satellite is in the earth's shadow,  

DLR